• en France
  • Liste des pays
  • À 7 jours
  • Température de l'eau
  • Carte satellitaire
  • Carte météo
  • Widgets météo
  • user-avatar
    Se connecter

    Météo par heure à Levyki

    Ce jour, 12 Novembre, Lundi

    Heure Température Précipitation Vent Pression Humidité
    00:00 -4°C° 0 mm 6 m/s 761 mmHg 69%
    01:00 -4°C° 0 mm 6 m/s 761 mmHg 68%
    02:00 -3°C° 0 mm 4 m/s 761 mmHg 75%
    03:00 -3°C° 0 mm 4 m/s 761 mmHg 74%
    04:00 -4°C° 0 mm 5 m/s 761 mmHg 72%
    05:00 -5°C° 0 mm 6 m/s 761 mmHg 71%
    06:00 -5°C° 0 mm 6 m/s 761 mmHg 69%
    07:00 -5°C° 0 mm 6 m/s 761 mmHg 67%
    08:00 -5°C° 0 mm 6 m/s 761 mmHg 64%
    09:00 -5°C° 0 mm 6 m/s 761 mmHg 61%
    10:00 -4°C° 0 mm 6 m/s 761 mmHg 59%
    11:00 -4°C° 0 mm 6 m/s 761 mmHg 56%
    12:00 -3°C° 0 mm 6 m/s 761 mmHg 55%
    13:00 -3°C° 0 mm 6 m/s 761 mmHg 54%
    14:00 -2°C° 0 mm 5 m/s 761 mmHg 55%
    15:00 -2°C° 0 mm 5 m/s 761 mmHg 55%
    16:00 -4°C° 0 mm 5 m/s 761 mmHg 55%
    17:00 -4°C° 0 mm 5 m/s 761 mmHg 55%
    18:00 -4°C° 0 mm 5 m/s 761 mmHg 55%
    19:00 -4°C° 0 mm 5 m/s 761 mmHg 54%
    20:00 -4°C° 0 mm 6 m/s 761 mmHg 53%
    21:00 -5°C° 0 mm 6 m/s 761 mmHg 53%
    22:00 -5°C° 0 mm 6 m/s 761 mmHg 53%
    23:00 -5°C° 0 mm 6 m/s 761 mmHg 53%

    Demain, 13 Novembre, Mardi

    Heure Température Précipitation Vent Pression Humidité
    00:00 -5°C° 0 mm 6 m/s 761 mmHg 53%
    01:00 -5°C° 0 mm 6 m/s 761 mmHg 53%
    02:00 -5°C° 0 mm 6 m/s 761 mmHg 53%
    03:00 -5°C° 0 mm 6 m/s 760 mmHg 53%
    04:00 -5°C° 0 mm 6 m/s 760 mmHg 52%
    05:00 -5°C° 0 mm 6 m/s 760 mmHg 52%
    06:00 -5°C° 0 mm 6 m/s 759 mmHg 52%
    07:00 -5°C° 0 mm 6 m/s 759 mmHg 51%
    08:00 -5°C° 0 mm 6 m/s 759 mmHg 51%
    09:00 -4°C° 0 mm 7 m/s 759 mmHg 49%
    10:00 -4°C° 0 mm 7 m/s 758 mmHg 48%
    11:00 -3°C° 0 mm 7 m/s 758 mmHg 47%
    12:00 -3°C° 0 mm 7 m/s 758 mmHg 46%
    13:00 -2°C° 0 mm 7 m/s 757 mmHg 45%
    14:00 -2°C° 0 mm 7 m/s 757 mmHg 45%
    15:00 -2°C° 0 mm 7 m/s 757 mmHg 45%
    16:00 -3°C° 0 mm 6 m/s 756 mmHg 46%
    17:00 -3°C° 0 mm 6 m/s 756 mmHg 46%
    18:00 -3°C° 0 mm 6 m/s 755 mmHg 47%
    19:00 -3°C° 0 mm 6 m/s 755 mmHg 47%
    20:00 -3°C° 0 mm 6 m/s 754 mmHg 48%
    21:00 -3°C° 0 mm 6 m/s 754 mmHg 49%
    22:00 -4°C° 0 mm 6 m/s 754 mmHg 49%
    23:00 -4°C° 0 mm 6 m/s 753 mmHg 50%

    Après-demain, 14 Novembre, Mercredi

    Heure Température Précipitation Vent Pression Humidité
    00:00 -4°C° 0 mm 6 m/s 753 mmHg 51%
    01:00 -4°C° 0 mm 6 m/s 752 mmHg 52%
    02:00 -4°C° 0 mm 6 m/s 752 mmHg 53%
    03:00 -4°C° 0 mm 6 m/s 751 mmHg 55%
    04:00 -4°C° 0 mm 6 m/s 750 mmHg 56%
    05:00 -4°C° 0 mm 6 m/s 749 mmHg 58%
    06:00 -4°C° 0.4 mm 6 m/s 749 mmHg 64%
    07:00 -4°C° 0.4 mm 6 m/s 749 mmHg 70%
    08:00 -5°C° 0.4 mm 6 m/s 749 mmHg 76%
    09:00 -5°C° 0.5 mm 6 m/s 749 mmHg 79%
    10:00 -5°C° 0.5 mm 6 m/s 749 mmHg 81%
    11:00 -5°C° 0.5 mm 6 m/s 748 mmHg 84%
    12:00 -4°C° 0.3 mm 5 m/s 748 mmHg 85%
    13:00 -4°C° 0.3 mm 5 m/s 748 mmHg 86%
    14:00 -4°C° 0.3 mm 5 m/s 748 mmHg 87%
    15:00 -4°C° 0.2 mm 5 m/s 748 mmHg 88%
    16:00 -3°C° 0.2 mm 4 m/s 749 mmHg 89%
    17:00 -3°C° 0.2 mm 4 m/s 749 mmHg 90%
    18:00 -3°C° 0.1 mm 4 m/s 749 mmHg 90%
    19:00 -2°C° 0.1 mm 3 m/s 750 mmHg 90%
    20:00 -2°C° 0.1 mm 3 m/s 750 mmHg 90%
    21:00 -2°C° 0.1 mm 3 m/s 750 mmHg 91%
    22:00 -1°C° 0.1 mm 3 m/s 751 mmHg 91%
    23:00 -1°C° 0.1 mm 2 m/s 751 mmHg 91%

    15 Novembre, Jeudi

    Heure Température Précipitation Vent Pression Humidité
    00:00 -1°C° 0 mm 2 m/s 752 mmHg 92%
    01:00 -1°C° 0 mm 2 m/s 753 mmHg 92%
    02:00 +1°C° 0 mm 1 m/s 753 mmHg 92%
    03:00 +1°C° 0 mm 1 m/s 754 mmHg 93%
    04:00 +1°C° 0 mm 1 m/s 754 mmHg 93%
    05:00 +1°C° 0 mm 1 m/s 754 mmHg 93%
    06:00 +1°C° 0 mm 1 m/s 755 mmHg 93%
    07:00 +1°C° 0 mm 1 m/s 756 mmHg 93%
    08:00 +1°C° 0 mm 1 m/s 756 mmHg 94%
    09:00 +1°C° 0 mm 1 m/s 757 mmHg 93%
    10:00 +2°C° 0 mm 1 m/s 757 mmHg 92%
    11:00 +2°C° 0 mm 1 m/s 758 mmHg 91%
    12:00 +2°C° 0 mm 1 m/s 758 mmHg 91%
    13:00 +2°C° 0 mm 1 m/s 759 mmHg 92%
    14:00 +2°C° 0 mm 1 m/s 759 mmHg 93%
    15:00 +2°C° 0 mm 1 m/s 759 mmHg 93%
    16:00 +2°C° 0 mm 1 m/s 760 mmHg 94%
    17:00 +2°C° 0 mm 1 m/s 760 mmHg 95%
    18:00 +2°C° 0 mm 1 m/s 760 mmHg 95%
    19:00 +1°C° 0 mm 1 m/s 761 mmHg 95%
    20:00 +1°C° 0 mm 1 m/s 761 mmHg 95%
    21:00 +1°C° 0 mm 1 m/s 761 mmHg 95%
    22:00 +1°C° 0 mm 1 m/s 762 mmHg 95%
    23:00 +1°C° 0 mm 1 m/s 762 mmHg 95%

    16 Novembre, Vendredi

    Heure Température Précipitation Vent Pression Humidité
    00:00 +1°C° 0 mm 1 m/s 762 mmHg 95%
    01:00 +1°C° 0 mm 1 m/s 762 mmHg 95%
    02:00 +1°C° 0 mm 1 m/s 763 mmHg 95%
    03:00 0°C° 0 mm 0 m/s 763 mmHg 95%
    04:00 0°C° 0 mm 0 m/s 763 mmHg 95%
    05:00 0°C° 0 mm 0 m/s 763 mmHg 95%
    06:00 0°C° 0 mm 0 m/s 763 mmHg 95%
    07:00 0°C° 0 mm 0 m/s 763 mmHg 95%
    08:00 0°C° 0 mm 0 m/s 764 mmHg 95%
    09:00 +1°C° 0 mm 0 m/s 764 mmHg 93%
    10:00 +1°C° 0 mm 0 m/s 764 mmHg 91%
    11:00 +2°C° 0 mm 0 m/s 764 mmHg 90%
    12:00 +2°C° 0 mm 0 m/s 764 mmHg 90%
    13:00 +2°C° 0 mm 0 m/s 764 mmHg 90%
    14:00 +2°C° 0 mm 0 m/s 764 mmHg 90%
    15:00 +1°C° 0 mm 0 m/s 764 mmHg 91%
    16:00 +1°C° 0 mm 0 m/s 764 mmHg 91%
    17:00 +1°C° 0 mm 0 m/s 764 mmHg 92%
    18:00 +2°C° 0 mm 1 m/s 764 mmHg 92%
    19:00 +2°C° 0 mm 1 m/s 764 mmHg 92%
    20:00 +2°C° 0 mm 1 m/s 764 mmHg 92%
    21:00 +2°C° 0 mm 1 m/s 764 mmHg 91%
    22:00 +2°C° 0 mm 1 m/s 764 mmHg 91%
    23:00 +2°C° 0 mm 1 m/s 765 mmHg 91%

    17 Novembre, Samedi

    Heure Température Précipitation Vent Pression Humidité
    00:00 +2°C° 0 mm 1 m/s 764 mmHg 91%
    01:00 +1°C° 0 mm 1 m/s 764 mmHg 92%
    02:00 +1°C° 0 mm 1 m/s 764 mmHg 92%
    03:00 -1°C° 0 mm 2 m/s 764 mmHg 93%
    04:00 -1°C° 0 mm 2 m/s 764 mmHg 93%
    05:00 -1°C° 0 mm 2 m/s 763 mmHg 93%
    06:00 -1°C° 0.1 mm 2 m/s 763 mmHg 94%
    07:00 -1°C° 0.1 mm 2 m/s 763 mmHg 94%
    08:00 +1°C° 0.1 mm 2 m/s 763 mmHg 94%
    09:00 +1°C° 0.1 mm 2 m/s 762 mmHg 94%
    10:00 +1°C° 0.1 mm 3 m/s 762 mmHg 94%
    11:00 +1°C° 0.1 mm 3 m/s 762 mmHg 93%
    12:00 +1°C° 0 mm 3 m/s 762 mmHg 93%
    13:00 +1°C° 0 mm 3 m/s 761 mmHg 94%
    14:00 +2°C° 0 mm 3 m/s 761 mmHg 94%
    15:00 +2°C° 0 mm 3 m/s 760 mmHg 94%
    16:00 +1°C° 0 mm 3 m/s 760 mmHg 94%
    17:00 +1°C° 0 mm 3 m/s 759 mmHg 95%
    18:00 +1°C° 0 mm 3 m/s 759 mmHg 95%
    19:00 +2°C° 0 mm 3 m/s 758 mmHg 94%
    20:00 +2°C° 0 mm 3 m/s 758 mmHg 94%
    21:00 +2°C° 0 mm 3 m/s 757 mmHg 94%
    22:00 +2°C° 0 mm 3 m/s 756 mmHg 94%
    23:00 +1°C° 0 mm 4 m/s 756 mmHg 94%
    Voir plus